Weather History for Alpena, MI

Change the Weather History Date:

Tuesday, December 4, 2012

  Actual Average Record
Temperature  
Mean Temperature 45 °F 29 °F  
Max Temperature 60 °F 35 °F 61 °F (1961)
Min Temperature 29 °F 23 °F 0 °F (1935)
Degree Days  
Heating Degree Days 20 36  
Month to date heating degree days 86 142  
Since 1 July heating degree days 1787 1965  
Moisture  
Dew Point 35 °F    
Average Humidity 69    
Maximum Humidity 87    
Minimum Humidity 50    
Precipitation  
Precipitation 0.15 in 0.07 in 0.61 in (1973)
Month to date precipitation 0.89 0.26  
Year to date precipitation 25.94 26.67  
Snow  
Snow 0.00 in 0.60 in 4.00 in (1970)
Month to date snowfall 0.0 2.2  
Since 1 July snowfall 2.2 10.3  
Snow Depth 0.00 in    
Sea Level Pressure  
Sea Level Pressure 29.89 in    
Wind  
Wind Speed 10 mph (West)    
Max Wind Speed 22 mph    
Max Gust Speed 31 mph    
Visibility 10 miles    
Events Rain    
T = Trace of Precipitation, MM = Missing Value Source: NWS Daily Summary

Daily Weather History Graph

Daily Weather History Graph

Search for Another Location

Airport:

Trip Planner

Search our weather history database for the weather conditions in past years. The results will help you decide how hot, cold, wet, or windy it might be!

Date:

Astronomy

Dec. 04, 2012 Rise Set
Actual Time 7:56 AM EST 4:52 PM EST
Civil Twilight 7:22 AM EST 5:26 PM EST
Nautical Twilight 6:46 AM EST 6:03 PM EST
Astronomical Twilight 6:10 AM EST 6:38 PM EST
Moon 10:49 PM EST (12/4) 11:40 AM EST (12/4)
Length of Visible Light 10h 03m
Length of Day
8h 56m
Waning Gibbous, 69% of the Moon is Illuminated
Dec 4
Waning Gibbous
Dec 6
Last Quarter
Dec 13
New
Dec 20
First Quarter
Dec 28
Full

Hourly Weather History & Observations

Time (EST) Temp. Windchill Dew Point Humidity Pressure Visibility Wind Dir Wind Speed Gust Speed Precip Events Conditions
12:54 AM 57.2 °F - 55.4 °F 94% 29.71 in 10.0 mi South 10.4 mph - N/A   Overcast
1:54 AM 59.0 °F - 57.0 °F 93% 29.70 in 8.0 mi SSW 11.5 mph - 0.02 in Rain Light Rain
2:54 AM 59.0 °F - 55.0 °F 87% 29.73 in 10.0 mi WSW 10.4 mph 19.6 mph 0.06 in Rain Light Rain
3:54 AM 57.0 °F - 52.0 °F 83% 29.77 in 10.0 mi West 11.5 mph 19.6 mph 0.00 in   Overcast
4:54 AM 52.0 °F - 45.0 °F 77% 29.80 in 10.0 mi WSW 5.8 mph - N/A   Clear
5:54 AM 50.0 °F - 44.1 °F 80% 29.82 in 10.0 mi WSW 5.8 mph - N/A   Clear
6:54 AM 48.0 °F - 39.9 °F 74% 29.83 in 10.0 mi West 9.2 mph - N/A   Clear
7:54 AM 46.9 °F - 37.9 °F 71% 29.86 in 10.0 mi WSW 5.8 mph - N/A   Clear
8:00 AM 46.4 °F 42.9 °F 37.4 °F 71% 29.85 in 10.0 mi WSW 6.9 mph - N/A   Overcast
8:54 AM 46.0 °F 42.5 °F 37.0 °F 71% 29.88 in 10.0 mi SW 6.9 mph - N/A   Mostly Cloudy
9:54 AM 45.0 °F 40.1 °F 36.0 °F 71% 29.89 in 10.0 mi WSW 9.2 mph - N/A   Mostly Cloudy
10:54 AM 45.0 °F 40.1 °F 35.1 °F 68% 29.88 in 10.0 mi WSW 9.2 mph - N/A   Overcast
11:54 AM 46.0 °F 41.9 °F 35.1 °F 66% 29.87 in 10.0 mi West 8.1 mph - N/A   Overcast
12:54 PM 46.0 °F 41.9 °F 34.0 °F 63% 29.86 in 10.0 mi WSW 8.1 mph - N/A   Overcast
1:54 PM 48.0 °F - 34.0 °F 58% 29.84 in 10.0 mi SW 11.5 mph 17.3 mph N/A   Overcast
2:54 PM 48.9 °F - 34.0 °F 56% 29.85 in 10.0 mi WSW 11.5 mph - N/A   Mostly Cloudy
3:54 PM 48.9 °F - 30.9 °F 50% 29.88 in 10.0 mi West 12.7 mph 23.0 mph N/A   Mostly Cloudy
4:54 PM 45.0 °F 41.2 °F 30.9 °F 58% 29.91 in 10.0 mi West 6.9 mph - N/A   Clear
5:54 PM 43.0 °F 37.7 °F 30.0 °F 60% 29.95 in 10.0 mi WNW 9.2 mph 18.4 mph N/A   Mostly Cloudy
6:54 PM 42.1 °F 36.6 °F 30.0 °F 62% 29.97 in 10.0 mi NW 9.2 mph - N/A   Overcast
7:54 PM 36.0 °F 27.5 °F 28.9 °F 76% 30.00 in 10.0 mi NNW 12.7 mph 23.0 mph N/A   Overcast
8:54 PM 33.1 °F 21.9 °F 24.1 °F 70% 30.04 in 10.0 mi NW 18.4 mph 25.3 mph N/A   Overcast
9:20 PM 32.0 °F 23.0 °F 19.4 °F 60% 30.04 in 10.0 mi NW 11.5 mph 25.3 mph N/A   Overcast
9:54 PM 30.9 °F 19.1 °F 16.0 °F 54% 30.08 in 10.0 mi NW 18.4 mph 27.6 mph N/A   Overcast
10:54 PM 30.0 °F 19.1 °F 17.1 °F 59% 30.11 in 10.0 mi NW 15.0 mph 24.2 mph N/A   Overcast
11:54 PM 28.9 °F 18.2 °F 15.1 °F 56% 30.13 in 10.0 mi WNW 13.8 mph 21.9 mph N/A   Mostly Cloudy